www.pogodaiklimat.ru

Погода и климат >> Архив погоды >> Канада >> Нунавут >> Шеперд-Бей


ПОГОДА в Шеперд-Бее

  • Прогноз погоды в Шеперд-Бее
  • Монитор погоды в Шеперд-Бее

АРХИВ ПОГОДЫ в Шеперд-Бее

Время (UTC), дата Ветер
(напр.,м/с)
 
Видим.   Явления Облачность Т
(С)
Тd
(С)
f
(%)
Тe
(С)
Тes
(С)
Комфортность P
(гПа)
Po
(гПа)
Тmin
(С)
Tmax
(С)
R
(мм)
R24
(мм)
S
(см)
03 16.04 Ю 4 н/о 10/10 600 м
[]
-26.5 -30.0 72 -37 -37 опасность
обморожения
1020.1 1014.2
06 16.04 Ю 4 н/о 9/9 600 м
[]
-27.2 -31.0 70 -38 -38 опасность
обморожения
1019.7 1013.8 -31.7 -23.4
09 16.04 Ю 5 н/о ясно -29.0 -33.1 68 -41 -41 опасность
обморожения
1020.4 1014.5
12 16.04 Ю 4 н/о ясно -29.7 -33.9 67 -40 -40 опасность
обморожения
1021.1 1015.2
15 16.04 В 4 н/о ясно -26.6 -30.5 69 -37 -35 опасность
обморожения
1021.6 1015.7
18 16.04 Ю 5 н/о ясно -23.7 -27.3 72 -34 -31 опасность
обморожения
1022.2 1016.3
21 16.04 Ю 3 н/о ясно -21.9 -25.5 73 -29 -25 1022.5 1016.6
00 17.04 Ю 4 н/о ясно -22.3 -25.5 75 -31 -31 опасность
обморожения
1022.3 1016.4
03 17.04 Ю 3 н/о ясно -27.6 -31.2 71 -37 -37 опасность
обморожения
1021.6 1015.7
06 17.04 Ю 3 н/о ясно -28.8 -32.8 68 -37 -37 опасность
обморожения
1020.8 1014.9 -30.3 -21.6
09 17.04 Ю 5 н/о ясно -32.2 -36.8 63 -45 -45 опасность
обморожения
1020.6 1014.7
12 17.04 ЮВ 5 н/о ясно -30.3 -34.7 65 -42 -42 опасность
обморожения
1019.6 1013.7
15 17.04 В 5 н/о ясно -26.0 -29.8 70 -38 -36 опасность
обморожения
1018.5 1012.6
18 17.04 В 5 н/о ясно -19.4 -22.3 78 -29 -25 1017.9 1012.0
21 17.04 СЗ 3 н/о ясно -20.7 -23.8 76 -28 -24 1017.5 1011.6
00 18.04 СЗ 3 н/о ясно -21.6 -24.7 76 -30 -29 1017.5 1011.6
03 18.04 З 4 н/о 9/0
[]
-22.7 -25.9 75 -32 -32 опасность
обморожения
1017.3 1011.4
06 18.04 З 6 н/о ясно -25.5 -29.1 72 -38 -38 опасность
обморожения
1017.3 1011.5 -32.9 -18.9
09 18.04 З 7 н/о ясно -27.7 -31.6 69 -41 -41 опасность
обморожения
1017.3 1011.4
12 18.04 ЮВ 5 н/о ясно -29.7 -34.0 66 -42 -42 опасность
обморожения
1017.6 1011.7
15 18.04 В 5 н/о ясно -28.4 -32.5 68 -41 -39 опасность
обморожения
1017.2 1011.3
18 18.04 ЮВ 5 н/о ясно -24.9 -28.6 71 -36 -32 опасность
обморожения
1016.9 1011.0
21 18.04 Ю 2 н/о ясно -22.2 -25.4 75 -29 -24 1016.2 1010.3
00 19.04 Ю 4 н/о ясно -22.8 -26.1 74 -33 -32 опасность
обморожения
1014.9 1009.0
03 19.04 Ю 4 н/о 10/10 1000 м
[]
-25.0 -28.7 71 -35 -35 опасность
обморожения
1013.2 1007.3
06 19.04 Ю 5 н/о 10/10 300 м
[]
-24.4 -27.9 73 -35 -35 опасность
обморожения
1011.5 1005.7 -30.8 -21.5
09 19.04 Ю 4 н/о 9/9 1000 м
[]
-25.6 -29.3 71 -35 -35 опасность
обморожения
1010.3 1004.5
12 19.04 ЮВ 4 н/о ясно -27.7 -31.6 69 -39 -38 опасность
обморожения
1009.7 1003.9
15 19.04 В 4 н/о ясно -25.0 -28.6 72 -35 -32 опасность
обморожения
1009.6 1003.8
18 19.04 З 7 н/о ясно -22.9 -26.3 74 -35 -33 опасность
обморожения
1009.8 1004.0
21 19.04 З 7 н/о ясно -23.7 -27.2 73 -36 -35 опасность
обморожения
1010.0 1004.2
00 20.04 З 6 н/о 10/0
[]
-23.7 -27.2 73 -35 -35 опасность
обморожения
1010.8 1004.9
03 20.04 З 6 н/о 10/10 1000 м
[]
-24.5 -28.0 73 -36 -36 опасность
обморожения
1010.9 1005.1
06 20.04 СЗ 5 н/о 10/10 1000 м
[]
-23.9 -27.3 73 -35 -35 опасность
обморожения
1011.2 1005.4 -28.0 -22.5
09 20.04 СЗ 4 н/о 10/10 600 м
[]
-25.0 -28.6 72 -35 -35 опасность
обморожения
1012.0 1006.2
12 20.04 В 9 н/о ясно -27.5 -31.5 69 -43 -43 опасность
обморожения
1013.3 1007.4
15 20.04 В 5 н/о ясно -23.0 -26.5 73 -34 -32 опасность
обморожения
1015.4 1009.5
18 20.04 СЗ 4 н/о ясно -24.6 -28.4 71 -35 -30 опасность
обморожения
1017.1 1011.2
21 20.04 З 5 н/о ясно -23.1 -28.0 64 -34 -32 опасность
обморожения
1018.5 1012.6
00 21.04 З 4 н/о ясно -24.3 -28.5 68 -34 -33 опасность
обморожения
1019.4 1013.5
03 21.04 Ю 3 н/о ясно -28.0 -31.6 71 -37 -37 опасность
обморожения
1019.8 1013.9
06 21.04 Ю 3 н/о ясно -29.1 -32.9 70 -39 -39 опасность
обморожения
1020.3 1014.4 -29.3 -22.6
09 21.04 ЮЗ 3 н/о ясно -31.3 -35.5 66 -41 -41 опасность
обморожения
1020.0 1014.1
12 21.04 ЮЗ 3 н/о 10/10 300 м
[]
-30.1 -34.3 67 -40 -40 опасность
обморожения
1019.3 1013.4
15 21.04 Ю 4 н/о ясно -24.6 -28.2 72 -35 -32 опасность
обморожения
1017.7 1011.8
18 21.04 Ю 3 н/о 3/3 300 м
[]
-19.9 -23.1 76 -28 -24 1015.5 1009.6
21 21.04 Ю 3 н/о ясно -18.9 -22.5 73 -26 -22 1014.2 1008.3
00 22.04 С 4 н/о 3/3 100 м
[]
-18.4 -21.3 78 -26 -26 1013.0 1007.2
03 22.04 С 8 н/о ясно -23.6 -27.2 72 -37 -37 опасность
обморожения
1014.3 1008.4
06 22.04 СЗ 6 н/о ясно -30.4 -34.5 67 -44 -44 опасность
обморожения
1017.1 1011.2 -31.6 -18.4
09 22.04 С 4 н/о ясно -31.4 -35.8 65 -42 -42 опасность
обморожения
1019.5 1013.6
12 22.04 С 4 н/о ясно -30.6 -35.0 65 -41 -41 опасность
обморожения
1021.0 1015.1
15 22.04 СЗ 7 н/о ясно -26.1 -30.7 65 -40 -39 опасность
обморожения
1021.6 1015.7
18 22.04 З 4 н/о ясно -23.0 -28.0 64 -33 -28 опасность
обморожения
1022.4 1016.5
21 22.04 С 4 н/о ясно -22.1 -26.7 66 -31 -27 опасность
обморожения
1022.5 1016.6

 

Местоположение метеостанции Шеперд-Бей (Нунавут, Канада): широта 68.82 долгота -93.43 высота над уровнем моря 42 м.

В архиве по умолчанию представлена погода в Шеперд-Бее за последнюю неделю. Архивные данные за месяц целиком и за предыдущие месяцы, начиная с января 2011 года, Вы можете получить, выбрав интересующий диапазон дат из раскрывающегося списка и нажав кнопку "Ввод!".


*Определитесь, кто Вы:
робот инопланетянин человек

Внимание! Время в таблицах - всемирное. Для получения местного времени необходимо прибавить поправку, которая равна -6 ч.

Смотрите также архив погоды в соседних городах и на ближайших метеорологических станциях:

Погода в Талойоаке (Нунавут, Канада) (81 км)
Погода в Джойа Хейвен (Нунавут, Канада) (100 км)
Погода в Кугааруке (Нунавут, Канада) (150 км)
Погода в Кам Фор (Нунавут, Канада) (157 км)
Погода на Острове Хат (Нунавут, Канада) (273 км)
Погода в Глеичене (Альберта, Канада) (332 км)
Погода в Вейджер Бэй (Нунавут, Канада) (369 км)
Погода в Кеймбридж-Бее (Нунавут, Канада) (466 км)
Погода в Кембридж Бэй (Нунавут, Канада) (466 км)
Погода в Холл Бич (Нунавут, Канада) (489 км)

Пояснения к столбцам:

Ветер - указаны скорость ветра в м/с - средняя за 10 мин, порывы в срок и между сроками (в фигурных скобках) и направление, откуда дует ветер: С - северный, СВ - северо-восточный, В - восточный, ЮВ - юго-восточный, Ю - южный, ЮЗ - юго-западный, З - западный, СЗ - северо-западный.
Видимость - горизонтальная дальность видимости в метрах или километрах. При видимости от 1 до 10 км при отсутствии осадков обычно наблюдается дымка, при ухудшении видимости до 1 км и менее - туман. В сухую погоду видимость может ухудшаться дымом, пылью или мглою.
Явления - указаны атмосферные явления, наблюдавшиеся в срок или в последний час перед сроком; фигурными скобками обозначены явления, наблюдавшиеся между сроками (за 1-3 часа до срока); квадратными скобками обозначены град или гололедные отложения с указанием их диаметра в мм.
Облачность - указаны через наклонную черту общая и нижняя облачность в баллах и высота нижней границы облаков в метрах; квадратными скобками обозначены формы облаков: Ci - перистые, Cs - перисто-слоистые, Cc - перисто-кучевые, Ac - высококучевые, As - высокослоистые, Sc - слоисто-кучевые, Ns - слоисто-дождевые, Cu - кучевые, Cb - кучево-дождевые. Подробнее классификацию облаков см. в Атласе облаков (PDF).
T - Температура воздуха - температура, измеренная на высоте 2 м над землей.
Td - Температура точки росы - температура, при понижении до которой содержащийся в воздухе водяной пар достигнет насыщения.
f - Относительная влажность воздуха - влажноcть воздуха, измеренная на высоте 2 м над землей.
Te - Эффективная температура - температура, которую ощущает одетый по сезону человек в тени. Характеристика душности погоды. При расчете учитывается влияние влажности воздуха и скорости ветра на теплоощущения человека.
Tes - Эффективная температура на солнце - температура, которую ощущает человек, с поправкой на солнечный нагрев. Характеристика знойности погоды. Зависит от высоты солнца над горизонтом, облачности и скорости ветра. Ночью, в пасмурную погоду, а также при ветре 12 м/с и более поправка равна нулю.
P - Атмосферное давление - приведенное к уровню моря атмосферное давление.
Po - Атмосферное давление - измеренное на уровне метеостанции атмосферное давление.
Tmin - Минимальная температура - минимум температуры воздуха на высоте 2 м над землей.
Tmax - Максимальная температура - максимум температуры воздуха на высоте 2 м над землей.
R - Количество осадков - Количество выпавших осадков за период времени, мм. При наведении курсора мыши на число - период времени, за который выпало указанное количество осадков.
R24 - Количество осадков - Количество выпавших осадков за 24 часа, мм.
S - Снежный покров - Высота снежного покрова, см. При наведении курсора мыши на число - состояние снежного покрова и степень покрытия местности в баллах.